Location: Croydon
(51.3762°N, 0.0982°W)
Time: 05:59:28
(UTC+00:00)

Altair - Pass Details

Date: 21 November 2019
Orbit: 1502 x 1682 km, 47.2° (Epoch: 14 December)

Event Time Altitude Azimuth Distance (km) Brightness Sun altitude
Rises 01:07:16 0° 196° (SSW) 4,657 - -54.6°
Reaches altitude 10° 01:11:02 10° 184° (S) 3,662 - -54.3°
Maximum altitude 01:17:52 24° 135° (SE) 2,710 - -53.7°
Exits shadow 01:23:08 14° 94° (E) 3,312 9.4 -53.1°
Drops below altitude 10° 01:24:41 10° 86° (E) 3,661 9.7 -53.0°
Sets 01:28:26 0° 74° (ENE) 4,655 10.5 -52.6°
